CFG5YF EDDM-LEPA

Flight info

Callsign CFG5YF
Flight time 1h 54m
Altitude 37000
Route TURBU7S TURBU Y107 TOBSO DCT BAKOR DCT SUMIR DCT MISPO DCT PIDAD DCT TALEP DCT RARQU DCT BALEN UT250 RIXOT
Aircraft A320/M-SDE3FGHIRWY/LB1

Departure

Time 2026-05-07 14:39
Airport Munich Airport (EDDM)

Arrival

Time 2026-05-07 16:33
Airport Palma de Mallorca Airport (LEPA)
Time Latitude Longitude Altitude Speed Heading
2026-05-07 14:11 48.35321 11.77686 1470 ft 0 kts 263°
2026-05-07 14:27 48.35322 11.77702 1470 ft 2 kts 263°
2026-05-07 14:27 48.35324 11.77725 1470 ft 2 kts 263°
2026-05-07 14:28 48.35325 11.77739 1470 ft 1 kts 264°
2026-05-07 14:28 48.35328 11.77761 1470 ft 2 kts 245°
2026-05-07 14:28 48.35336 11.77780 1470 ft 2 kts 231°
2026-05-07 14:28 48.35347 11.77797 1469 ft 2 kts 215°
2026-05-07 14:29 48.35360 11.77807 1469 ft 2 kts 199°
2026-05-07 14:29 48.35375 11.77813 1469 ft 2 kts 184°
2026-05-07 14:29 48.35384 11.77813 1469 ft 0 kts 174°
2026-05-07 14:29 48.35390 11.77811 1469 ft 0 kts 173°
2026-05-07 14:30 48.35390 11.77812 1469 ft 0 kts 173°
2026-05-07 14:32 48.35385 11.77813 1469 ft 1 kts 173°
2026-05-07 14:32 48.35366 11.77816 1469 ft 3 kts 174°
2026-05-07 14:32 48.35332 11.77821 1470 ft 6 kts 174°
2026-05-07 14:32 48.35276 11.77830 1470 ft 9 kts 173°
2026-05-07 14:33 48.35197 11.77844 1470 ft 12 kts 173°
2026-05-07 14:33 48.35109 11.77859 1469 ft 13 kts 174°
2026-05-07 14:33 48.35010 11.77877 1469 ft 14 kts 173°
2026-05-07 14:33 48.34909 11.77893 1470 ft 14 kts 178°
2026-05-07 14:34 48.34805 11.77877 1470 ft 15 kts 175°
2026-05-07 14:34 48.34703 11.77895 1470 ft 14 kts 166°
2026-05-07 14:34 48.34673 11.78027 1470 ft 15 kts 85°
2026-05-07 14:34 48.34685 11.78189 1469 ft 15 kts 83°
2026-05-07 14:35 48.34699 11.78351 1470 ft 17 kts 83°
2026-05-07 14:35 48.34713 11.78524 1473 ft 15 kts 83°
2026-05-07 14:35 48.34725 11.78689 1474 ft 16 kts 84°
2026-05-07 14:35 48.34739 11.78865 1474 ft 17 kts 82°
2026-05-07 14:36 48.34753 11.79050 1473 ft 18 kts 84°
2026-05-07 14:36 48.34768 11.79251 1469 ft 20 kts 83°
2026-05-07 14:36 48.34782 11.79428 1469 ft 15 kts 83°
2026-05-07 14:36 48.34746 11.79548 1467 ft 15 kts 175°
2026-05-07 14:37 48.34645 11.79547 1469 ft 14 kts 201°
2026-05-07 14:37 48.34513 11.79316 1473 ft 14 kts 233°
2026-05-07 14:37 48.34450 11.79190 1473 ft 15 kts 234°
2026-05-07 14:38 48.34384 11.79063 1474 ft 14 kts 231°
2026-05-07 14:38 48.34360 11.78903 1476 ft 29 kts 264°
2026-05-07 14:38 48.34306 11.78202 1477 ft 103 kts 264°
2026-05-07 14:38 48.34200 11.76820 1485 ft 160 kts 264°
2026-05-07 14:39 48.34060 11.75132 2028 ft 166 kts 264°
2026-05-07 14:39 48.33913 11.73438 2811 ft 164 kts 265°
2026-05-07 14:39 48.33575 11.71830 3449 ft 175 kts 234°
2026-05-07 14:39 48.32491 11.70835 3917 ft 198 kts 193°
2026-05-07 14:40 48.31068 11.70779 4412 ft 216 kts 182°
2026-05-07 14:40 48.29489 11.70833 4965 ft 233 kts 175°
2026-05-07 14:40 48.27947 11.71529 5768 ft 242 kts 155°
2026-05-07 14:40 48.26476 11.72940 6314 ft 262 kts 147°
2026-05-07 14:41 48.24946 11.74559 6910 ft 277 kts 147°
2026-05-07 14:41 48.23358 11.76247 7628 ft 287 kts 148°
2026-05-07 14:41 48.21730 11.77972 8506 ft 290 kts 149°
2026-05-07 14:41 48.20063 11.79674 9362 ft 293 kts 150°
2026-05-07 14:42 48.18344 11.81279 10187 ft 294 kts 156°
2026-05-07 14:42 48.16490 11.82529 10895 ft 299 kts 164°
2026-05-07 14:42 48.14505 11.83538 11324 ft 315 kts 166°
2026-05-07 14:42 48.12399 11.84547 11704 ft 333 kts 166°
2026-05-07 14:43 48.10222 11.85593 12047 ft 349 kts 165°
2026-05-07 14:43 48.07995 11.86679 12596 ft 357 kts 165°
2026-05-07 14:43 48.05612 11.87856 13342 ft 360 kts 165°
2026-05-07 14:43 48.03313 11.88998 14032 ft 363 kts 165°
2026-05-07 14:44 48.00899 11.90197 14705 ft 367 kts 165°
2026-05-07 14:44 47.98478 11.91395 15357 ft 370 kts 165°
2026-05-07 14:44 47.96033 11.92605 15977 ft 374 kts 165°
2026-05-07 14:44 47.93556 11.93781 16573 ft 376 kts 168°
2026-05-07 14:45 47.90987 11.94573 17184 ft 377 kts 175°
2026-05-07 14:45 47.88399 11.94871 17761 ft 377 kts 182°
2026-05-07 14:45 47.85774 11.94857 18300 ft 380 kts 184°
2026-05-07 14:45 47.83184 11.94782 18841 ft 383 kts 184°
2026-05-07 14:46 47.80536 11.94706 19377 ft 387 kts 184°
2026-05-07 14:46 47.77837 11.94642 19940 ft 390 kts 184°
2026-05-07 14:46 47.75143 11.94587 20475 ft 393 kts 183°
2026-05-07 14:46 47.72402 11.94536 20993 ft 396 kts 183°
2026-05-07 14:47 47.69621 11.94488 21498 ft 399 kts 183°
2026-05-07 14:47 47.66834 11.94442 21991 ft 402 kts 183°
2026-05-07 14:47 47.64048 11.94395 22481 ft 405 kts 183°
2026-05-07 14:47 47.61247 11.94347 22952 ft 408 kts 183°
2026-05-07 14:48 47.58411 11.94297 23432 ft 411 kts 183°
2026-05-07 14:48 47.55534 11.94245 23886 ft 414 kts 183°
2026-05-07 14:48 47.52646 11.94194 24311 ft 417 kts 182°
2026-05-07 14:48 47.49762 11.94145 24746 ft 419 kts 182°
2026-05-07 14:49 47.46845 11.94095 25174 ft 422 kts 183°
2026-05-07 14:49 47.43907 11.93971 25584 ft 424 kts 185°
2026-05-07 14:49 47.40950 11.93605 25979 ft 425 kts 188°
2026-05-07 14:49 47.38047 11.93043 26355 ft 427 kts 190°
2026-05-07 14:50 47.35054 11.92442 26730 ft 429 kts 189°
2026-05-07 14:50 47.32115 11.91851 27085 ft 432 kts 189°
2026-05-07 14:50 47.29138 11.91255 27444 ft 434 kts 189°
2026-05-07 14:50 47.26170 11.90663 27786 ft 436 kts 189°
2026-05-07 14:51 47.23157 11.90061 28108 ft 438 kts 189°
2026-05-07 14:51 47.20147 11.89461 28430 ft 440 kts 189°
2026-05-07 14:51 47.17090 11.88854 28752 ft 442 kts 189°
2026-05-07 14:51 47.14060 11.88252 29044 ft 443 kts 189°
2026-05-07 14:52 47.11001 11.87645 29323 ft 445 kts 189°
2026-05-07 14:52 47.07940 11.87038 29594 ft 447 kts 189°
2026-05-07 14:52 47.04862 11.86430 29868 ft 448 kts 189°
2026-05-07 14:52 47.01786 11.85763 30151 ft 448 kts 191°
2026-05-07 14:53 46.98754 11.84885 30489 ft 446 kts 194°
2026-05-07 14:53 46.95716 11.83916 30864 ft 445 kts 194°
2026-05-07 14:53 46.92724 11.82965 31180 ft 444 kts 194°
2026-05-07 14:53 46.89718 11.82013 31427 ft 442 kts 194°
2026-05-07 14:54 46.86716 11.81063 31660 ft 441 kts 195°
2026-05-07 14:54 46.83719 11.80115 31911 ft 440 kts 195°
2026-05-07 14:54 46.80770 11.79179 32152 ft 438 kts 195°
2026-05-07 14:54 46.77770 11.78226 32375 ft 437 kts 195°
2026-05-07 14:55 46.74812 11.77288 32603 ft 436 kts 196°
2026-05-07 14:55 46.71875 11.76358 32818 ft 435 kts 196°
2026-05-07 14:55 46.68932 11.75394 33052 ft 433 kts 198°
2026-05-07 14:55 46.66064 11.74209 33275 ft 430 kts 202°
2026-05-07 14:56 46.63250 11.72758 33481 ft 427 kts 206°
2026-05-07 14:56 46.60550 11.71070 33676 ft 424 kts 210°
2026-05-07 14:56 46.57935 11.69138 33887 ft 422 kts 213°
2026-05-07 14:56 46.55433 11.66987 34089 ft 419 kts 217°
2026-05-07 14:57 46.53027 11.64607 34335 ft 416 kts 220°
2026-05-07 14:57 46.50703 11.62143 34579 ft 414 kts 220°
2026-05-07 14:57 46.48406 11.59710 34803 ft 414 kts 220°
2026-05-07 14:57 46.46068 11.57234 35013 ft 414 kts 220°
2026-05-07 14:58 46.43847 11.54888 35182 ft 414 kts 220°
2026-05-07 14:58 46.41507 11.52421 35361 ft 415 kts 220°
2026-05-07 14:58 46.39201 11.49993 35522 ft 415 kts 220°
2026-05-07 14:58 46.36844 11.47509 35681 ft 415 kts 220°
2026-05-07 14:59 46.34507 11.45050 35796 ft 417 kts 220°
2026-05-07 14:59 46.32196 11.42621 35913 ft 418 kts 220°
2026-05-07 14:59 46.29840 11.40150 36047 ft 419 kts 220°
2026-05-07 14:59 46.27495 11.37694 36153 ft 420 kts 220°
2026-05-07 15:00 46.22775 11.32725 36374 ft 421 kts 219°
2026-05-07 15:00 46.20433 11.30237 36482 ft 423 kts 219°
2026-05-07 15:00 46.18056 11.27712 36593 ft 423 kts 219°
2026-05-07 15:01 46.15717 11.25233 36715 ft 424 kts 219°
2026-05-07 15:01 46.13329 11.22702 36836 ft 424 kts 219°
2026-05-07 15:01 46.10969 11.20203 36950 ft 424 kts 219°
2026-05-07 15:01 46.08592 11.17692 36804 ft 424 kts 219°
2026-05-07 15:02 46.06235 11.15203 36920 ft 424 kts 220°
2026-05-07 15:02 46.03846 11.12682 36937 ft 425 kts 219°
2026-05-07 15:02 45.99098 11.07681 36966 ft 425 kts 219°
2026-05-07 15:03 45.94337 11.02678 36991 ft 425 kts 220°
2026-05-07 15:03 45.89584 10.97694 36977 ft 424 kts 220°
2026-05-07 15:04 45.84818 10.92707 36977 ft 424 kts 220°
2026-05-07 15:04 45.80066 10.87745 36981 ft 423 kts 219°
2026-05-07 15:05 45.75354 10.82834 36977 ft 422 kts 220°
2026-05-07 15:05 45.70593 10.77884 36960 ft 422 kts 220°
2026-05-07 15:06 45.65857 10.72973 36968 ft 421 kts 220°
2026-05-07 15:06 45.61147 10.68094 36955 ft 421 kts 220°
2026-05-07 15:07 45.56399 10.63189 36967 ft 420 kts 220°
2026-05-07 15:07 45.51679 10.58325 36960 ft 420 kts 220°
2026-05-07 15:08 45.46970 10.53477 36963 ft 420 kts 220°
2026-05-07 15:08 45.42242 10.48623 36971 ft 420 kts 220°
2026-05-07 15:09 45.37528 10.43794 36943 ft 420 kts 220°
2026-05-07 15:09 45.32767 10.38928 36960 ft 420 kts 220°
2026-05-07 15:10 45.28055 10.34120 36945 ft 420 kts 219°
2026-05-07 15:10 45.23303 10.29282 36953 ft 420 kts 219°
2026-05-07 15:11 45.18578 10.24479 36941 ft 419 kts 219°
2026-05-07 15:11 45.13871 10.19705 36959 ft 418 kts 219°
2026-05-07 15:12 45.09140 10.14913 36951 ft 418 kts 219°
2026-05-07 15:12 45.04449 10.10173 36955 ft 417 kts 219°
2026-05-07 15:13 44.99712 10.05399 36965 ft 417 kts 219°
2026-05-07 15:13 44.95010 10.00670 36960 ft 417 kts 219°
2026-05-07 15:14 44.90293 9.95929 36966 ft 417 kts 219°
2026-05-07 15:14 44.85578 9.91196 36970 ft 418 kts 219°
2026-05-07 15:15 44.80875 9.86483 36967 ft 418 kts 219°
2026-05-07 15:15 44.76137 9.81744 36974 ft 418 kts 219°
2026-05-07 15:16 44.71436 9.77053 36981 ft 418 kts 219°
2026-05-07 15:16 44.66702 9.72337 36978 ft 417 kts 219°
2026-05-07 15:17 44.61979 9.67643 36974 ft 416 kts 219°
2026-05-07 15:17 44.57260 9.62963 36965 ft 416 kts 219°
2026-05-07 15:18 44.52553 9.58301 36976 ft 415 kts 219°
2026-05-07 15:18 44.47876 9.53682 36977 ft 415 kts 219°
2026-05-07 15:19 44.43150 9.49020 36980 ft 415 kts 219°
2026-05-07 15:19 44.38431 9.44375 36984 ft 415 kts 219°
2026-05-07 15:20 44.33736 9.39765 36981 ft 415 kts 219°
2026-05-07 15:20 44.29018 9.35140 36975 ft 414 kts 219°
2026-05-07 15:21 44.24327 9.30554 36971 ft 414 kts 219°
2026-05-07 15:21 44.19618 9.25954 36962 ft 414 kts 219°
2026-05-07 15:22 44.14919 9.21376 36960 ft 414 kts 219°
2026-05-07 15:22 44.10221 9.16807 36966 ft 413 kts 219°
2026-05-07 15:23 44.05506 9.12230 36966 ft 412 kts 219°
2026-05-07 15:23 44.00835 9.07706 36961 ft 412 kts 219°
2026-05-07 15:24 43.96140 9.03166 36958 ft 412 kts 219°
2026-05-07 15:24 43.91467 8.98656 36968 ft 412 kts 219°
2026-05-07 15:25 43.86765 8.94126 36975 ft 411 kts 219°
2026-05-07 15:25 43.82084 8.89624 36963 ft 411 kts 219°
2026-05-07 15:26 43.77428 8.85153 36968 ft 410 kts 219°
2026-05-07 15:26 43.72737 8.80659 36969 ft 409 kts 219°
2026-05-07 15:27 43.67912 8.76473 36968 ft 412 kts 212°
2026-05-07 15:27 43.62590 8.73431 36966 ft 419 kts 203°
2026-05-07 15:28 43.56902 8.71687 36964 ft 425 kts 195°
2026-05-07 15:28 43.51071 8.70419 36961 ft 421 kts 199°
2026-05-07 15:29 43.45589 8.67874 36965 ft 412 kts 210°
2026-05-07 15:29 43.40754 8.63903 36967 ft 405 kts 221°
2026-05-07 15:30 43.36517 8.58911 36966 ft 403 kts 225°
2026-05-07 15:30 43.32338 8.53775 36966 ft 402 kts 225°
2026-05-07 15:31 43.28204 8.48694 36964 ft 401 kts 225°
2026-05-07 15:31 43.24058 8.43611 36968 ft 401 kts 225°
2026-05-07 15:32 43.19891 8.38508 36968 ft 400 kts 225°
2026-05-07 15:32 43.15778 8.33480 36966 ft 400 kts 225°
2026-05-07 15:33 43.11640 8.28432 36963 ft 399 kts 225°
2026-05-07 15:33 43.07509 8.23401 36969 ft 399 kts 225°
2026-05-07 15:34 43.03362 8.18361 36971 ft 398 kts 224°
2026-05-07 15:34 42.99227 8.13345 36966 ft 398 kts 224°
2026-05-07 15:35 42.95103 8.08350 36965 ft 398 kts 224°
2026-05-07 15:35 42.90968 8.03351 36970 ft 399 kts 224°
2026-05-07 15:36 42.86844 7.98379 36968 ft 399 kts 224°
2026-05-07 15:36 42.82695 7.93382 36971 ft 398 kts 224°
2026-05-07 15:37 42.78543 7.88391 36971 ft 398 kts 224°
2026-05-07 15:37 42.74401 7.83423 36967 ft 398 kts 224°
2026-05-07 15:38 42.70251 7.78454 36973 ft 398 kts 224°
2026-05-07 15:38 42.66107 7.73502 36965 ft 398 kts 224°
2026-05-07 15:39 42.61966 7.68559 36966 ft 398 kts 224°
2026-05-07 15:39 42.57809 7.63610 36969 ft 398 kts 224°
2026-05-07 15:40 42.53672 7.58694 36959 ft 397 kts 224°
2026-05-07 15:40 42.49497 7.53741 36970 ft 398 kts 224°
2026-05-07 15:41 42.45363 7.48842 36967 ft 398 kts 224°
2026-05-07 15:41 42.41196 7.43920 36970 ft 398 kts 224°
2026-05-07 15:42 42.37045 7.39018 36961 ft 397 kts 224°
2026-05-07 15:42 42.32902 7.34138 36962 ft 398 kts 223°
2026-05-07 15:43 42.28733 7.29238 36955 ft 398 kts 223°
2026-05-07 15:43 42.24573 7.24353 36947 ft 398 kts 223°
2026-05-07 15:44 42.20402 7.19467 36943 ft 399 kts 223°
2026-05-07 15:44 42.16222 7.14576 36941 ft 399 kts 223°
2026-05-07 15:45 42.12037 7.09688 36943 ft 398 kts 223°
2026-05-07 15:45 42.07868 7.04826 36937 ft 398 kts 223°
2026-05-07 15:46 42.01609 6.97535 36940 ft 399 kts 224°
2026-05-07 15:47 41.97502 6.92517 36943 ft 398 kts 224°
2026-05-07 15:47 41.93436 6.87520 36941 ft 397 kts 224°
2026-05-07 15:48 41.89384 6.82551 36941 ft 397 kts 224°
2026-05-07 15:48 41.85306 6.77562 36942 ft 397 kts 224°
2026-05-07 15:49 41.81232 6.72593 36935 ft 397 kts 224°
2026-05-07 15:49 41.77150 6.67622 36936 ft 398 kts 224°
2026-05-07 15:50 41.73080 6.62675 36937 ft 397 kts 224°
2026-05-07 15:50 41.68993 6.57718 36936 ft 398 kts 224°
2026-05-07 15:51 41.64897 6.52756 36932 ft 398 kts 224°
2026-05-07 15:51 41.60803 6.47807 36931 ft 398 kts 224°
2026-05-07 15:52 41.56710 6.42870 36937 ft 398 kts 224°
2026-05-07 15:52 41.52620 6.37943 36937 ft 398 kts 224°
2026-05-07 15:53 41.48497 6.32985 36938 ft 399 kts 223°
2026-05-07 15:53 41.44403 6.28071 36931 ft 399 kts 223°
2026-05-07 15:54 41.40271 6.23119 36942 ft 400 kts 223°
2026-05-07 15:54 41.36158 6.18200 36939 ft 399 kts 223°
2026-05-07 15:55 41.32054 6.13299 36927 ft 399 kts 223°
2026-05-07 15:55 41.27935 6.08387 36926 ft 400 kts 223°
2026-05-07 15:56 41.23801 6.03469 36940 ft 400 kts 223°
2026-05-07 15:56 41.19669 5.98563 36942 ft 400 kts 223°
2026-05-07 15:57 41.15519 5.93641 36935 ft 400 kts 223°
2026-05-07 15:57 41.11390 5.88752 36937 ft 401 kts 223°
2026-05-07 15:58 41.07228 5.83828 36942 ft 401 kts 223°
2026-05-07 15:58 41.03099 5.78956 36948 ft 400 kts 223°
2026-05-07 15:59 40.98929 5.74029 36936 ft 400 kts 224°
2026-05-07 15:59 40.95043 5.68844 36937 ft 399 kts 229°
2026-05-07 16:00 40.91556 5.63197 36943 ft 399 kts 233°
2026-05-07 16:00 40.88350 5.57252 36944 ft 399 kts 234°
2026-05-07 16:01 40.85159 5.51323 36932 ft 399 kts 234°
2026-05-07 16:01 40.81956 5.45372 36929 ft 400 kts 234°
2026-05-07 16:02 40.78754 5.39427 36936 ft 400 kts 234°
2026-05-07 16:02 40.77134 5.36426 36755 ft 400 kts 234°
2026-05-07 16:02 40.75554 5.33497 36521 ft 397 kts 234°
2026-05-07 16:02 40.73957 5.30541 36280 ft 394 kts 233°
2026-05-07 16:03 40.72371 5.27607 35975 ft 393 kts 234°
2026-05-07 16:03 40.70821 5.24739 35499 ft 391 kts 233°
2026-05-07 16:03 40.69315 5.21959 34922 ft 392 kts 233°
2026-05-07 16:03 40.67747 5.19068 34182 ft 394 kts 233°
2026-05-07 16:04 40.66157 5.16138 33364 ft 395 kts 233°
2026-05-07 16:04 40.64576 5.13225 32561 ft 396 kts 233°
2026-05-07 16:04 40.62978 5.10284 31734 ft 397 kts 233°
2026-05-07 16:04 40.61383 5.07354 30904 ft 398 kts 233°
2026-05-07 16:05 40.59763 5.04377 30046 ft 399 kts 233°
2026-05-07 16:05 40.58149 5.01416 29281 ft 399 kts 233°
2026-05-07 16:05 40.56530 4.98452 28767 ft 405 kts 233°
2026-05-07 16:05 40.54894 4.95456 28233 ft 403 kts 233°
2026-05-07 16:06 40.53433 4.92782 27755 ft 399 kts 233°
2026-05-07 16:06 40.51896 4.89970 27238 ft 396 kts 233°
2026-05-07 16:06 40.50328 4.87102 26704 ft 392 kts 233°
2026-05-07 16:06 40.48736 4.84196 26165 ft 389 kts 233°
2026-05-07 16:07 40.47176 4.81351 25635 ft 385 kts 233°
2026-05-07 16:07 40.45629 4.78535 25101 ft 382 kts 233°
2026-05-07 16:07 40.44088 4.75731 24556 ft 378 kts 233°
2026-05-07 16:07 40.42550 4.72935 24022 ft 375 kts 233°
2026-05-07 16:08 40.41044 4.70198 23500 ft 371 kts 234°
2026-05-07 16:08 40.39565 4.67513 22992 ft 368 kts 233°
2026-05-07 16:08 40.38073 4.64810 22705 ft 378 kts 233°
2026-05-07 16:08 40.36521 4.62011 22731 ft 385 kts 233°
2026-05-07 16:09 40.34943 4.59163 22744 ft 387 kts 233°
2026-05-07 16:09 40.33391 4.56362 22767 ft 388 kts 233°
2026-05-07 16:09 40.31803 4.53498 22797 ft 388 kts 233°
2026-05-07 16:09 40.30215 4.50638 22826 ft 388 kts 233°
2026-05-07 16:10 40.28627 4.47776 22856 ft 389 kts 234°
2026-05-07 16:10 40.27037 4.44917 22880 ft 388 kts 234°
2026-05-07 16:10 40.25465 4.42086 22903 ft 389 kts 233°
2026-05-07 16:10 40.23864 4.39208 22911 ft 389 kts 233°
2026-05-07 16:11 40.22273 4.36352 22918 ft 389 kts 233°
2026-05-07 16:11 40.20687 4.33506 22918 ft 390 kts 233°
2026-05-07 16:11 40.19111 4.30683 22919 ft 390 kts 233°
2026-05-07 16:11 40.17509 4.27815 22919 ft 390 kts 233°
2026-05-07 16:12 40.15919 4.24967 22929 ft 390 kts 233°
2026-05-07 16:12 40.14339 4.22142 22925 ft 391 kts 233°
2026-05-07 16:12 40.12778 4.19354 22927 ft 391 kts 233°
2026-05-07 16:12 40.11165 4.16476 22924 ft 391 kts 233°
2026-05-07 16:13 40.09563 4.13621 22918 ft 392 kts 233°
2026-05-07 16:13 40.07962 4.10768 22924 ft 392 kts 233°
2026-05-07 16:13 40.06374 4.07944 22920 ft 393 kts 233°
2026-05-07 16:13 40.04777 4.05103 22925 ft 393 kts 233°
2026-05-07 16:14 40.03161 4.02235 22928 ft 393 kts 233°
2026-05-07 16:14 40.01547 3.99371 22925 ft 393 kts 233°
2026-05-07 16:14 39.99929 3.96501 22927 ft 392 kts 233°
2026-05-07 16:14 39.98355 3.93712 22925 ft 391 kts 233°
2026-05-07 16:15 39.96756 3.90881 22914 ft 391 kts 233°
2026-05-07 16:15 39.95149 3.88038 22902 ft 392 kts 233°
2026-05-07 16:15 39.93518 3.85155 22844 ft 392 kts 233°
2026-05-07 16:15 39.91927 3.82345 22207 ft 387 kts 233°
2026-05-07 16:16 39.90377 3.79607 21570 ft 377 kts 232°
2026-05-07 16:16 39.88847 3.76906 20987 ft 373 kts 232°
2026-05-07 16:16 39.87334 3.74240 20439 ft 370 kts 232°
2026-05-07 16:16 39.85847 3.71624 19904 ft 368 kts 232°
2026-05-07 16:17 39.84367 3.69022 19376 ft 366 kts 232°
2026-05-07 16:17 39.82876 3.66402 18840 ft 365 kts 232°
2026-05-07 16:17 39.81364 3.63749 18296 ft 364 kts 231°
2026-05-07 16:17 39.79877 3.61142 17766 ft 364 kts 231°
2026-05-07 16:18 39.78375 3.58511 17228 ft 364 kts 232°
2026-05-07 16:18 39.76858 3.55852 16680 ft 364 kts 231°
2026-05-07 16:18 39.75353 3.53218 16128 ft 364 kts 231°
2026-05-07 16:18 39.73856 3.50605 15581 ft 364 kts 232°
2026-05-07 16:19 39.72369 3.48010 15039 ft 364 kts 232°
2026-05-07 16:19 39.70873 3.45352 14483 ft 364 kts 234°
2026-05-07 16:19 39.69507 3.42594 13922 ft 364 kts 238°
2026-05-07 16:19 39.68306 3.39738 13382 ft 364 kts 242°
2026-05-07 16:20 39.67180 3.36819 12859 ft 361 kts 243°
2026-05-07 16:20 39.66085 3.33945 12544 ft 349 kts 242°
2026-05-07 16:20 39.65046 3.31222 12353 ft 330 kts 242°
2026-05-07 16:20 39.64048 3.28622 12165 ft 318 kts 242°
2026-05-07 16:21 39.63070 3.26082 11986 ft 307 kts 242°
2026-05-07 16:21 39.62149 3.23700 11824 ft 298 kts 242°
2026-05-07 16:21 39.61222 3.21303 11478 ft 296 kts 242°
2026-05-07 16:21 39.60305 3.18940 11122 ft 294 kts 242°
2026-05-07 16:22 39.59394 3.16594 10768 ft 293 kts 243°
2026-05-07 16:22 39.58475 3.14225 10409 ft 291 kts 243°
2026-05-07 16:22 39.57576 3.11905 10059 ft 290 kts 243°
2026-05-07 16:22 39.56684 3.09608 9723 ft 288 kts 243°
2026-05-07 16:23 39.55788 3.07299 9371 ft 287 kts 243°
2026-05-07 16:23 39.54904 3.05022 9011 ft 286 kts 243°
2026-05-07 16:23 39.54014 3.02729 8652 ft 285 kts 243°
2026-05-07 16:23 39.53126 3.00445 8295 ft 284 kts 243°
2026-05-07 16:24 39.52236 2.98157 7943 ft 283 kts 243°
2026-05-07 16:24 39.51363 2.95912 7591 ft 282 kts 243°
2026-05-07 16:24 39.50473 2.93629 7238 ft 281 kts 242°
2026-05-07 16:24 39.49598 2.91387 6892 ft 280 kts 242°
2026-05-07 16:25 39.48727 2.89155 6542 ft 280 kts 242°
2026-05-07 16:25 39.47857 2.86928 6194 ft 279 kts 242°
2026-05-07 16:25 39.46974 2.84674 5844 ft 278 kts 242°
2026-05-07 16:25 39.46108 2.82468 5502 ft 277 kts 242°
2026-05-07 16:26 39.45242 2.80253 5156 ft 277 kts 242°
2026-05-07 16:26 39.44376 2.78045 4811 ft 276 kts 242°
2026-05-07 16:26 39.43618 2.75764 4464 ft 276 kts 252°
2026-05-07 16:26 39.43214 2.73346 4133 ft 275 kts 261°
2026-05-07 16:27 39.42983 2.70900 3795 ft 271 kts 263°
2026-05-07 16:27 39.42788 2.68523 3487 ft 261 kts 263°
2026-05-07 16:27 39.42595 2.66243 3182 ft 255 kts 263°
2026-05-07 16:27 39.42394 2.64001 2994 ft 248 kts 263°
2026-05-07 16:28 39.42188 2.61801 2974 ft 247 kts 263°
2026-05-07 16:28 39.41981 2.59615 2968 ft 242 kts 263°
2026-05-07 16:28 39.41896 2.57496 2930 ft 228 kts 282°
2026-05-07 16:28 39.42604 2.55775 2652 ft 216 kts 326°
2026-05-07 16:29 39.43944 2.55175 2431 ft 197 kts
2026-05-07 16:29 39.45227 2.55518 2351 ft 185 kts 24°
2026-05-07 16:29 39.46414 2.56148 2296 ft 182 kts 31°
2026-05-07 16:29 39.47496 2.56976 2281 ft 180 kts 42°
2026-05-07 16:30 39.48394 2.58089 2256 ft 178 kts 53°
2026-05-07 16:30 39.49123 2.59333 2137 ft 169 kts 58°
2026-05-07 16:30 39.49752 2.60545 1894 ft 157 kts 61°
2026-05-07 16:30 39.50308 2.61700 1679 ft 143 kts 62°
2026-05-07 16:31 39.50778 2.62701 1479 ft 135 kts 62°
2026-05-07 16:31 39.51267 2.63752 1296 ft 134 kts 62°
2026-05-07 16:31 39.51758 2.64803 1112 ft 136 kts 63°
2026-05-07 16:31 39.52242 2.65853 951 ft 136 kts 60°
2026-05-07 16:32 39.52765 2.66879 770 ft 138 kts 59°
2026-05-07 16:32 39.53269 2.67926 628 ft 135 kts 64°
2026-05-07 16:32 39.53730 2.68986 424 ft 133 kts 62°
2026-05-07 16:32 39.54219 2.70002 234 ft 133 kts 63°
2026-05-07 16:33 39.54686 2.71007 57 ft 133 kts 62°
2026-05-07 16:33 39.55149 2.71987 15 ft 115 kts 60°
2026-05-07 16:33 39.55476 2.72686 9 ft 67 kts 59°
2026-05-07 16:33 39.55657 2.73094 15 ft 44 kts 65°
2026-05-07 16:34 39.55708 2.73384 16 ft 20 kts 88°
2026-05-07 16:34 39.55709 2.73474 18 ft 7 kts 90°
2026-05-07 16:34 39.55709 2.73521 18 ft 4 kts 90°
2026-05-07 16:34 39.55701 2.73550 18 ft 3 kts 131°
2026-05-07 16:35 39.55678 2.73554 18 ft 3 kts 220°
2026-05-07 16:35 39.55662 2.73520 19 ft 4 kts 239°
2026-05-07 16:35 39.55634 2.73498 19 ft 5 kts 187°
2026-05-07 16:35 39.55592 2.73522 20 ft 7 kts 148°
2026-05-07 16:36 39.55541 2.73564 22 ft 9 kts 148°
2026-05-07 16:36 39.55477 2.73614 25 ft 11 kts 149°
2026-05-07 16:36 39.55407 2.73668 28 ft 11 kts 148°
2026-05-07 16:36 39.55338 2.73723 32 ft 12 kts 148°
2026-05-07 16:37 39.55264 2.73781 35 ft 13 kts 148°
2026-05-07 16:37 39.55181 2.73846 38 ft 14 kts 149°
2026-05-07 16:37 39.55090 2.73918 38 ft 16 kts 149°
2026-05-07 16:37 39.54992 2.73995 37 ft 16 kts 148°
2026-05-07 16:38 39.54889 2.74077 34 ft 17 kts 148°
2026-05-07 16:38 39.54788 2.74117 32 ft 15 kts 217°
2026-05-07 16:38 39.54728 2.74000 34 ft 15 kts 238°
2026-05-07 16:38 39.54671 2.73880 34 ft 16 kts 239°
2026-05-07 16:39 39.54611 2.73754 34 ft 16 kts 238°
2026-05-07 16:39 39.54595 2.73642 34 ft 14 kts 317°
2026-05-07 16:39 39.54676 2.73604 34 ft 11 kts 329°
2026-05-07 16:39 39.54721 2.73577 33 ft 5 kts 18°
2026-05-07 16:40 39.54744 2.73618 33 ft 4 kts 58°
2026-05-07 16:40 39.54754 2.73639 34 ft 0 kts 58°